When you browse on this site, cookies collect data to enhance your experience and personalize the content and advertising you see.
Visit our Privacy Policy to learn more. By continuing to use the site, you agree to this use of cookies and data.
  • Em Portugal
  • Lista de países
  • Para 7 dias
  • Temperatura da água
  • Mapa do tempo
  • Widgets de tempo
  • user-avatar
    Iniciar Sessão

    Previsão horária em Yerevan

    Hoje, 1 Junho, Segunda-feira

    Tempo Temperatura Precipitação Vento Pressão Humidade
    00:00 +20°C° 0 mm 1 m/s 688 mmHg 41%
    01:00 +19°C° 0 mm 1 m/s 688 mmHg 42%
    02:00 +19°C° 0 mm 1 m/s 688 mmHg 43%
    03:00 +17°C° 0 mm 2 m/s 688 mmHg 43%
    04:00 +19°C° 0 mm 1 m/s 688 mmHg 45%
    05:00 +20°C° 0 mm 1 m/s 688 mmHg 46%
    06:00 +20°C° 0 mm 1 m/s 688 mmHg 48%
    07:00 +22°C° 0 mm 1 m/s 689 mmHg 42%
    08:00 +24°C° 0 mm 1 m/s 689 mmHg 36%
    09:00 +26°C° 0 mm 1 m/s 689 mmHg 30%
    10:00 +28°C° 0 mm 1 m/s 689 mmHg 27%
    11:00 +29°C° 0 mm 1 m/s 689 mmHg 24%
    12:00 +30°C° 0 mm 1 m/s 689 mmHg 22%
    13:00 +31°C° 0 mm 2 m/s 689 mmHg 20%
    14:00 +32°C° 0 mm 2 m/s 689 mmHg 19%
    15:00 +33°C° 0 mm 3 m/s 688 mmHg 18%
    16:00 +31°C° 0 mm 3 m/s 688 mmHg 21%
    17:00 +30°C° 0 mm 4 m/s 688 mmHg 24%
    18:00 +29°C° 0 mm 5 m/s 688 mmHg 27%
    19:00 +28°C° 0 mm 4 m/s 688 mmHg 28%
    20:00 +26°C° 0 mm 3 m/s 688 mmHg 28%
    21:00 +25°C° 0 mm 2 m/s 688 mmHg 29%
    22:00 +24°C° 0 mm 2 m/s 688 mmHg 32%
    23:00 +22°C° 0 mm 1 m/s 687 mmHg 34%

    Amanhã, 2 Junho, Terça-feira

    Tempo Temperatura Precipitação Vento Pressão Humidade
    00:00 +21°C° 0 mm 1 m/s 687 mmHg 37%
    01:00 +21°C° 0 mm 1 m/s 687 mmHg 38%
    02:00 +20°C° 0 mm 1 m/s 687 mmHg 40%
    03:00 +20°C° 0 mm 1 m/s 686 mmHg 41%
    04:00 +20°C° 0 mm 1 m/s 686 mmHg 43%
    05:00 +21°C° 0 mm 1 m/s 686 mmHg 44%
    06:00 +22°C° 0 mm 1 m/s 686 mmHg 46%
    07:00 +24°C° 0 mm 1 m/s 686 mmHg 40%
    08:00 +26°C° 0 mm 1 m/s 686 mmHg 34%
    09:00 +28°C° 0 mm 1 m/s 686 mmHg 28%
    10:00 +29°C° 0 mm 1 m/s 686 mmHg 27%
    11:00 +30°C° 0 mm 2 m/s 686 mmHg 25%
    12:00 +31°C° 0 mm 2 m/s 686 mmHg 24%
    13:00 +30°C° 0 mm 3 m/s 686 mmHg 26%
    14:00 +30°C° 0 mm 5 m/s 686 mmHg 27%
    15:00 +30°C° 0 mm 6 m/s 685 mmHg 29%
    16:00 +30°C° 0 mm 5 m/s 685 mmHg 31%
    17:00 +29°C° 0 mm 3 m/s 685 mmHg 32%
    18:00 +29°C° 0 mm 2 m/s 685 mmHg 34%
    19:00 +27°C° 0 mm 2 m/s 685 mmHg 38%
    20:00 +25°C° 0 mm 2 m/s 685 mmHg 41%
    21:00 +22°C° 0 mm 1 m/s 685 mmHg 45%
    22:00 +21°C° 0 mm 2 m/s 685 mmHg 44%
    23:00 +21°C° 0 mm 2 m/s 685 mmHg 43%

    Depois de amanhã, 3 Junho, Quarta-feira

    Tempo Temperatura Precipitação Vento Pressão Humidade
    00:00 +20°C° 0 mm 2 m/s 685 mmHg 43%
    01:00 +20°C° 0 mm 2 m/s 685 mmHg 42%
    02:00 +19°C° 0 mm 2 m/s 685 mmHg 42%
    03:00 +19°C° 0 mm 2 m/s 685 mmHg 41%
    04:00 +19°C° 0 mm 2 m/s 686 mmHg 42%
    05:00 +21°C° 0 mm 1 m/s 686 mmHg 42%
    06:00 +21°C° 0 mm 1 m/s 686 mmHg 42%
    07:00 +23°C° 0 mm 1 m/s 686 mmHg 38%
    08:00 +25°C° 0 mm 2 m/s 686 mmHg 34%
    09:00 +27°C° 0 mm 2 m/s 686 mmHg 29%
    10:00 +28°C° 0 mm 2 m/s 686 mmHg 27%
    11:00 +29°C° 0 mm 2 m/s 686 mmHg 25%
    12:00 +30°C° 0 mm 1 m/s 686 mmHg 23%
    13:00 +30°C° 0 mm 2 m/s 686 mmHg 24%
    14:00 +30°C° 0 mm 2 m/s 685 mmHg 26%
    15:00 +30°C° 0 mm 3 m/s 685 mmHg 27%
    16:00 +29°C° 0 mm 3 m/s 685 mmHg 31%
    17:00 +28°C° 0 mm 3 m/s 685 mmHg 34%
    18:00 +28°C° 0 mm 3 m/s 685 mmHg 38%
    19:00 +26°C° 0 mm 3 m/s 686 mmHg 38%
    20:00 +23°C° 0 mm 4 m/s 686 mmHg 38%
    21:00 +22°C° 0 mm 4 m/s 687 mmHg 38%
    22:00 +21°C° 0 mm 3 m/s 687 mmHg 38%
    23:00 +20°C° 0 mm 3 m/s 688 mmHg 37%

    4 Junho, Quinta-feira

    Tempo Temperatura Precipitação Vento Pressão Humidade
    00:00 +19°C° 0 mm 2 m/s 688 mmHg 37%
    01:00 +18°C° 0 mm 2 m/s 688 mmHg 39%
    02:00 +17°C° 0 mm 2 m/s 688 mmHg 42%
    03:00 +16°C° 0 mm 1 m/s 688 mmHg 45%
    04:00 +18°C° 0 mm 1 m/s 688 mmHg 45%
    05:00 +19°C° 0 mm 1 m/s 688 mmHg 46%
    06:00 +20°C° 0 mm 1 m/s 689 mmHg 47%
    07:00 +22°C° 0 mm 1 m/s 689 mmHg 41%
    08:00 +24°C° 0 mm 1 m/s 689 mmHg 36%
    09:00 +25°C° 0 mm 1 m/s 689 mmHg 31%
    10:00 +27°C° 0 mm 1 m/s 689 mmHg 27%
    11:00 +28°C° 0 mm 1 m/s 689 mmHg 24%
    12:00 +29°C° 0 mm 1 m/s 689 mmHg 21%
    13:00 +30°C° 0 mm 1 m/s 689 mmHg 20%
    14:00 +31°C° 0 mm 1 m/s 689 mmHg 19%
    15:00 +31°C° 0 mm 1 m/s 689 mmHg 18%
    16:00 +31°C° 0 mm 1 m/s 689 mmHg 20%
    17:00 +31°C° 0 mm 2 m/s 689 mmHg 22%
    18:00 +30°C° 0 mm 2 m/s 689 mmHg 24%
    19:00 +28°C° 0 mm 3 m/s 689 mmHg 26%
    20:00 +26°C° 0 mm 3 m/s 689 mmHg 28%
    21:00 +22°C° 0 mm 4 m/s 690 mmHg 29%
    22:00 +21°C° 0 mm 3 m/s 690 mmHg 32%
    23:00 +20°C° 0 mm 3 m/s 690 mmHg 34%

    5 Junho, Sexta-feira

    Tempo Temperatura Precipitação Vento Pressão Humidade
    00:00 +19°C° 0 mm 2 m/s 690 mmHg 37%
    01:00 +19°C° 0 mm 2 m/s 690 mmHg 39%
    02:00 +18°C° 0 mm 2 m/s 690 mmHg 41%
    03:00 +18°C° 0 mm 1 m/s 690 mmHg 43%
    04:00 +19°C° 0 mm 1 m/s 690 mmHg 44%
    05:00 +20°C° 0 mm 1 m/s 691 mmHg 44%
    06:00 +21°C° 0 mm 1 m/s 691 mmHg 45%
    07:00 +23°C° 0 mm 1 m/s 691 mmHg 39%
    08:00 +25°C° 0 mm 2 m/s 692 mmHg 34%
    09:00 +26°C° 0 mm 2 m/s 692 mmHg 28%
    10:00 +28°C° 0 mm 2 m/s 692 mmHg 25%
    11:00 +29°C° 0 mm 2 m/s 692 mmHg 22%
    12:00 +30°C° 0 mm 2 m/s 692 mmHg 19%
    13:00 +31°C° 0 mm 2 m/s 692 mmHg 18%
    14:00 +31°C° 0 mm 3 m/s 692 mmHg 17%
    15:00 +33°C° 0 mm 4 m/s 692 mmHg 16%
    16:00 +32°C° 0 mm 4 m/s 692 mmHg 18%
    17:00 +30°C° 0 mm 4 m/s 692 mmHg 21%
    18:00 +30°C° 0 mm 4 m/s 692 mmHg 23%
    19:00 +27°C° 0 mm 4 m/s 692 mmHg 27%
    20:00 +25°C° 0 mm 3 m/s 692 mmHg 31%
    21:00 +22°C° 0 mm 3 m/s 692 mmHg 34%
    22:00 +21°C° 0 mm 3 m/s 692 mmHg 38%
    23:00 +20°C° 0 mm 3 m/s 692 mmHg 41%

    6 Junho, Sábado

    Tempo Temperatura Precipitação Vento Pressão Humidade
    00:00 +19°C° 0 mm 3 m/s 692 mmHg 45%
    01:00 +18°C° 0 mm 3 m/s 692 mmHg 47%
    02:00 +18°C° 0 mm 2 m/s 692 mmHg 48%
    03:00 +17°C° 0 mm 2 m/s 692 mmHg 50%
    04:00 +18°C° 0 mm 2 m/s 692 mmHg 50%
    05:00 +18°C° 0 mm 2 m/s 692 mmHg 50%
    06:00 +19°C° 0 mm 2 m/s 693 mmHg 50%
    07:00 +21°C° 0 mm 2 m/s 693 mmHg 45%
    08:00 +24°C° 0 mm 2 m/s 693 mmHg 40%
    09:00 +26°C° 0 mm 2 m/s 693 mmHg 35%
    10:00 +27°C° 0 mm 1 m/s 693 mmHg 32%
    11:00 +29°C° 0 mm 1 m/s 693 mmHg 29%
    12:00 +30°C° 0 mm 1 m/s 693 mmHg 26%
    13:00 +31°C° 0 mm 1 m/s 693 mmHg 24%
    14:00 +31°C° 0 mm 1 m/s 693 mmHg 22%
    15:00 +32°C° 0 mm 1 m/s 692 mmHg 21%
    16:00 +31°C° 0 mm 2 m/s 692 mmHg 25%
    17:00 +30°C° 0 mm 4 m/s 692 mmHg 30%
    18:00 +29°C° 0 mm 5 m/s 692 mmHg 34%
    19:00 +26°C° 0.1 mm 4 m/s 692 mmHg 40%
    20:00 +24°C° 0.1 mm 3 m/s 693 mmHg 46%
    21:00 +21°C° 0.1 mm 1 m/s 693 mmHg 52%
    22:00 +20°C° 0 mm 1 m/s 693 mmHg 54%
    23:00 +20°C° 0 mm 1 m/s 692 mmHg 56%
    Mostrar mais